This is the latest recevied weather packets stored in our database for station/object KO5S. If no packets are shown the sender has not sent any weather packets the latest 10 day(s).
| Time | Temp. | Humidity | Pressure | Rain* | Wind** | Luminosity | Snow |
|---|---|---|---|---|---|---|---|
| 1778275696 | 19.44° C | 93% | 1010.9 hPa | 7.62 mm | - | - | - |
| 1778273896 | 19.44° C | 93% | 1011.4 hPa | 15.75 mm | - | - | - |
| 1778272696 | 19.44° C | 92% | 1010.8 hPa | 16.76 mm | - | - | - |
| 1778270296 | 20° C | 92% | 1010.7 hPa | 4.32 mm | - | - | - |
| 1778269716 | 20° C | 91% | 1010.1 hPa | 2.03 mm | - | - | - |
| 1778268496 | 20.56° C | 91% | 1010.1 hPa | 1.27 mm | - | - | - |
| 1778267896 | 20.56° C | 90% | 1010.1 hPa | 0 mm | - | - | - |
| 1778265516 | 20.56° C | 90% | 1010.5 hPa | 0 mm | - | - | - |
| 1778264296 | 20.56° C | 90% | 1010.6 hPa | 0 mm | - | - | - |
| 1778260736 | 20.56° C | 90% | 1010.6 hPa | 0 mm | - | - | - |
| 1778254696 | 20° C | 88% | 1011.1 hPa | 0 mm | - | - | - |
| 1778252896 | 20° C | 89% | 1011.1 hPa | 0 mm | - | - | - |
| 1778251096 | 19.44° C | 89% | 1011.2 hPa | 0 mm | - | - | - |
| 1778249296 | 19.44° C | 87% | 1011.3 hPa | 0 mm | - | - | - |
| 1778243296 | 18.89° C | 89% | 1011.8 hPa | 0 mm | - | - | - |
| 1778242097 | 18.33° C | 88% | 1012 hPa | 0 mm | - | - | - |
| 1778238496 | 18.33° C | 88% | 1010.6 hPa | 0 mm | - | - | - |
| 1778237895 | 18.33° C | 89% | 1010.6 hPa | 0 mm | - | - | - |
| 1778236696 | 18.33° C | 89% | 1010.6 hPa | 0 mm | - | - | - |
| 1778236136 | 18.33° C | 89% | 1010.5 hPa | 0 mm | - | - | - |
| 1778232495 | 18.33° C | 89% | 1010.2 hPa | 0 mm | - | - | - |
| 1778231895 | 18.33° C | 88% | 1010.2 hPa | 0 mm | - | - | - |
| 1778222895 | 18.33° C | 90% | 1010.3 hPa | 0 mm | - | - | - |
| 1778221095 | 18.89° C | 90% | 1011 hPa | 0 mm | - | - | - |
| 1778219295 | 18.89° C | 90% | 1011.1 hPa | 0 mm | - | - | - |
* Rain latest hour (hover to see other rain measurements)
** Current wind speed in m/s (hover to see current wind gust speed)